Showing default

SOYUZ MS-27, 63520

Orbit data source: Space-Track

SOYUZ MS-27, 63520 is a payload satellite owned by RKKE (CIS) in LEO that was launched on Tue, 08 Apr 2025 UTC via a SOYUZ-2-1A launch vehicle from the Tyuratam Missile And Space Complex (TTMTR). Payload-class satellites include a variety of spacecraft equipped with specific instruments for various scientific and technological missions. These include communications satellites like Starlink; space stations such as the ISS; scientific satellites like the Hubble; Earth observation satellites from companies like Planet Labs, Umbra, and HawkEye 360; GPS; miniature CubeSats for education and research; and military/defense satellites.

Loading next visibility...
Identifier
63520, 2025-072A
Orbit
LEO
Last TLE update
2 days ago
Origin
Manufacturer
RKKE
Mission
Operational spacecraft
Bus & Motor
7K-S A48, SA
Mass
7,152 kg wet, 2,900 kg dry
Launch date (UTC)
2025-04-08 (3 weeks ago)
Launch vehicle
SOYUZ-2-1A
Launch site
Tyuratam Missile And Space Complex (TTMTR)
Object type
Payload
Rocket body
Debris
Shape & HBR
Unknown
Radar Cross Section
Large (>1 m²)

Expand to show TLE details & history

TLE from 2 days ago
0 SOYUZ MS-27
1 63520U 25072A   25118.69904601  .00018272  00000-0  33462-3 0  9995
2 63520  51.6381 192.1629 0002672  81.2921  56.6448 15.49375691  2489
Epoch: 2025-04-28T16:46Z
Definitive object data (Epoch: 2025-04-28T16:46:37.575Z)
Latitude
31.77594°
Longitude
-125.5836°
Altitude
419.381 km
Speed
7.664 km/s
True Right ascension
22h 51m 55s
True Declination
31° 36' 52"
Sunlit
Object was in daylight at TLE epoch
Visualization TLE readout
Latitude
-47.09406°
Longitude
-47.25373°
Altitude
435.982 km
Speed
7.649 km/s
Apparent Right ascension
05h 23m 11s
Apparent Declination
-45° 02' 11"
Sunlit
Object is in daylight
Visualization observer readout
Local Sidereal Time
18:36:59
Azimuth
116.716° SE
Elevation
-75.502°
Doppler factor
1
Orbital elements
Apogee altitude
420.876 km
Perigee altitude
417.243 km
Semi-major axis
6,797.196 km
Eccentricity
0.0002672
Inclination
51.6381°
RAAN
192.1629°
Arg. of periapsis
81.2921°
True anomaly
56.67038°
Mean anomaly
56.6448°
Eccentric anomaly
56.65759°
Mean motion
3.87301 °/min
BSTAR
0.00033462
Orbital period
92.95 mins
Loading maneuver chart data...
Loading SW <> Apogee altitude chart data...
Loading historical data...
Loading historical data...
Loading historical data...
Loading historical data...
Loading historical data...
Loading historical data...
Loading historical data...
Other satellites on launch #72 in the year 2025 (2025-04-08 UTC)

SOYUZ MS-27 Visibility forecast

Observer location: undefined°, undefined°

Span
Click to sort rows by Start time (UTC) header in descending order
Start Az.
Max El. time (UTC)
Max El. Az.
Max El.
End time (UTC)
End Az.
4 mins2025-04-30 11:56:52.603Z339.073° N2025-04-30 11:58:52.603Z17.403° NNE15.1°2025-04-30 12:00:52.603Z55.179° ENE
5 mins2025-04-30 13:33:52.603Z316.168° NNW2025-04-30 13:35:52.603Z5.152° NNE41.007°2025-04-30 13:38:52.603Z116.177° SE
4 mins2025-05-01 06:16:52.603Z180.695° SSW2025-05-01 06:18:52.603Z120.957° SE25.221°2025-05-01 06:20:52.603Z77.929° E
4 mins2025-05-01 07:53:52.603Z286.495° WNW2025-05-01 07:54:52.603Z316.795° NNW27.656°2025-05-01 07:57:52.603Z34.188° NE
|